Regional Weather Roundup
Issued by NWS Charleston, WV

Home | Current Version | Previous Version | Text Only | Print | Product List | Glossary On
Versions: 1 2 3 4 5 6 7 8 9 10 11 12 13 14 15 16 17 18 19 20 21 22 23 24 25 26 27 28 29 30 31 32 33 34 35 36 37 38 39 40 41 42 43 44 45 46 47 48 49 50
000
ASUS41 KRLX 251610
RWRRLX
West Virginia Regional Weather Roundup
National Weather Service Charleston WV
1200 PM EDT MON MAY 25 2015

Note: "fair" indicates few or no clouds below 12,000 feet with no
significant weather and/or obstructions to visibility.

WVZ003-251700-
Northern Panhandle of West Virginia

CITY           SKY/WX    TMP DP  RH WIND       PRES   REMARKS
WHEELING       PTSUNNY   77  57  50 SW14G20   30.19F
$$

WVZ009-251700-
Northwest West Virginia

CITY           SKY/WX    TMP DP  RH WIND       PRES   REMARKS
PARKERSBURG    MOSUNNY   80  56  43 W9G18     30.22F
$$

WVZ006-251700-
Western West Virginia

CITY           SKY/WX    TMP DP  RH WIND       PRES   REMARKS
HUNTINGTON     MOSUNNY   80  57  45 S12G18    30.19F
$$

WVZ015-251700-
West Central West Virginia

CITY           SKY/WX    TMP DP  RH WIND       PRES   REMARKS
CHARLESTON     MOSUNNY   82  55  39 VRB7      30.21F
$$

WVZ022-031-251700-
North Central West Virginia

CITY           SKY/WX    TMP DP  RH WIND       PRES   REMARKS
CLARKSBURG     MOSUNNY   80  58  46 SW8       30.23F
MORGANTOWN     CLOUDY    79  53  40 VRB7      30.23F
$$

WVZ025-035-042-045-251700-
Southern West Virginia

CITY           SKY/WX    TMP DP  RH WIND       PRES   REMARKS
BECKLEY        SUNNY     75  50  41 CALM      30.31S
LOGAN            N/A     77  57  50 E8        30.22S
BLUEFIELD      SUNNY     76  53  44 SE8       30.34S
LEWISBURG      SUNNY     75  53  45 SW7       30.32S
$$

WVZ047-251700-
Northern Mountains of West Virginia

CITY           SKY/WX    TMP DP  RH WIND       PRES   REMARKS
ELKINS         SUNNY     79  52  38 N6        30.27F
$$

WVZ052-251700-
Eastern Panhandle of West Virginia

CITY           SKY/WX    TMP DP  RH WIND       PRES   REMARKS
MARTINSBURG    SUNNY     80  58  46 S10       30.23F
PETERSBURG     SUNNY     81  54  38 S6        30.23F
$$


USA.gov is the U.S. government's official web portal to all federal, state and local government web resources and services.